This is the latest recevied weather packets stored in our database for station/object W4MLN-1. If no packets are shown the sender has not sent any weather packets the latest 10 day(s).
| Time | Temp. | Humidity | Pressure | Rain* | Wind** | Luminosity | Snow |
|---|---|---|---|---|---|---|---|
| 1777504063 | 18.89° C | 79% | 1010.5 hPa | 0 mm | - | 57 W/m² | - |
| 1777503762 | 18.89° C | 78% | 1010.5 hPa | 0 mm | - | 61 W/m² | - |
| 1777503460 | 18.89° C | 78% | 1010.4 hPa | 0 mm | - | 22 W/m² | - |
| 1777503160 | 18.89° C | 77% | 1010.4 hPa | 0 mm | - | 31 W/m² | - |
| 1777502860 | 19.44° C | 76% | 1010.2 hPa | 0 mm | - | 33 W/m² | - |
| 1777502560 | 19.44° C | 75% | 1010.1 hPa | 0 mm | - | 64 W/m² | - |
| 1777502261 | 19.44° C | 75% | 1010 hPa | 0 mm | - | 256 W/m² | - |
| 1777501960 | 19.44° C | 75% | 1010.1 hPa | 0 mm | - | 206 W/m² | - |
| 1777501660 | 20° C | 74% | 1010 hPa | 0 mm | - | 125 W/m² | - |
| 1777501360 | 20° C | 74% | 1010 hPa | 0 mm | - | 137 W/m² | - |
| 1777501061 | 20° C | 73% | 1009.9 hPa | 0 mm | - | 327 W/m² | - |
| 1777500760 | 20° C | 74% | 1009.9 hPa | 0 mm | - | 272 W/m² | - |
| 1777500461 | 20° C | 72% | 1010 hPa | 0 mm | - | 404 W/m² | - |
| 1777500158 | 19.44° C | 74% | 1010 hPa | 0 mm | - | 384 W/m² | - |
| 1777499858 | 19.44° C | 74% | 1010 hPa | 0 mm | - | 130 W/m² | - |
| 1777499558 | 19.44° C | 73% | 1010 hPa | 0 mm | - | 134 W/m² | - |
| 1777499258 | 19.44° C | 72% | 1009.8 hPa | 0 mm | - | 135 W/m² | - |
| 1777498958 | 20° C | 72% | 1010 hPa | 0 mm | - | 116 W/m² | - |
| 1777498658 | 20° C | 70% | 1009.9 hPa | 0 mm | - | 150 W/m² | - |
| 1777498358 | 20.56° C | 69% | 1010.1 hPa | 0 mm | - | 88 W/m² | - |
| 1777498058 | 20.56° C | 69% | 1010.1 hPa | 0 mm | - | 115 W/m² | - |
| 1777497758 | 20.56° C | 69% | 1010 hPa | 0 mm | - | 534 W/m² | - |
| 1777497459 | 20.56° C | 69% | 1010.2 hPa | 0 mm | - | 219 W/m² | - |
| 1777497158 | 20.56° C | 68% | 1010.1 hPa | 0 mm | - | 187 W/m² | - |
| 1777496859 | 21.11° C | 68% | 1010 hPa | 0 mm | - | 520 W/m² | - |
* Rain latest hour (hover to see other rain measurements)
** Current wind speed in m/s (hover to see current wind gust speed)